Clarksville, TN

8:20 AM CDT on April 24, 2017 (GMT -0500)
Outlaw

Weather History for KCKV - October, 2012

Change the Weather History Date:

Wednesday, October 31, 2012

  Actual Average Record
Temperature  
Mean Temperature 46 °F 54 °F  
Max Temperature 57 °F 66 °F 88 °F (1950)
Min Temperature 34 °F 42 °F 28 °F (1980)
Degree Days  
Heating Degree Days 19 11  
Month to date heating degree days 261 219  
Since 1 July heating degree days 298 249  
Cooling Degree Days 0 0  
Month to date cooling degree days 14 31  
Year to date cooling degree days 1430  
Moisture  
Dew Point 26 °F    
Average Humidity 51    
Maximum Humidity 82    
Minimum Humidity 27    
Precipitation  
Precipitation 0.00 in 0.11 in 2.44 in (2013)
Month to date precipitation 3.75 3.91  
Year to date precipitation 40.57  
Sea Level Pressure  
Sea Level Pressure 29.91 in    
Wind  
Wind Speed 9 mph (WNW)    
Max Wind Speed 15 mph    
Max Gust Speed 23 mph    
Visibility 10 miles    
Events      
T = Trace of Precipitation, MM = Missing Value Source: NWS Daily Summary

Daily Weather History Graph

Daily Weather History Graph

Search for Another Location

Airport or City:

Trip Planner

Search our weather history database for the weather conditions in past years. The results will help you decide how hot, cold, wet, or windy it might be!

Date:

Astronomy

Oct. 31, 2012 Rise Set
Actual Time 7:12 AM CDT 5:53 PM CDT
Civil Twilight 6:45 AM CDT 6:20 PM CDT
Nautical Twilight 6:15 AM CDT 6:50 PM CDT
Astronomical Twilight 5:45 AM CDT 7:20 PM CDT
Moon 7:07 PM CDT (10/31) 8:50 AM CDT (10/31)
Length of Visible Light 11h 34m
Length of Day
10h 40m
Full, 97% of the Moon is Illuminated
Oct 31
Full
Nov 6
Last Quarter
Nov 13
New
Nov 20
First Quarter
Nov 28
Full

Hourly Weather History & Observations

Time (CDT) Temp. Windchill Dew Point Humidity Pressure Visibility Wind Dir Wind Speed Gust Speed Precip Events Conditions
12:52 AM 39.0 °F 33.4 °F 27.0 °F 62% 29.87 in 10.0 mi West 8.1 mph - N/A   Clear
1:52 AM 39.0 °F 34.0 °F 28.0 °F 65% 29.87 in 10.0 mi West 6.9 mph - N/A   Clear
2:52 AM 37.9 °F 33.5 °F 28.0 °F 68% 29.88 in 10.0 mi West 5.8 mph - N/A   Clear
3:52 AM 37.0 °F 31.6 °F 28.0 °F 70% 29.87 in 10.0 mi West 6.9 mph - N/A   Clear
4:52 AM 36.0 °F 31.1 °F 28.0 °F 73% 29.89 in 10.0 mi West 5.8 mph - N/A   Clear
5:52 AM 36.0 °F 29.6 °F 28.0 °F 73% 29.90 in 10.0 mi West 8.1 mph - N/A   Clear
6:52 AM 34.0 °F 28.0 °F 28.0 °F 79% 29.90 in 10.0 mi West 6.9 mph - N/A   Clear
7:52 AM 37.0 °F 31.0 °F 30.0 °F 76% 29.92 in 10.0 mi West 8.1 mph - N/A   Clear
8:52 AM 42.1 °F 36.1 °F 30.9 °F 65% 29.94 in 10.0 mi WNW 10.4 mph - N/A   Clear
9:52 AM 46.0 °F 40.6 °F 30.0 °F 54% 29.94 in 10.0 mi NW 11.5 mph - N/A   Clear
10:52 AM 48.9 °F - 28.0 °F 44% 29.94 in 10.0 mi WNW 8.1 mph - N/A   Clear
11:52 AM 52.0 °F - 25.0 °F 35% 29.93 in 10.0 mi NW 12.7 mph 23.0 mph N/A   Clear
12:52 PM 54.0 °F - 24.1 °F 31% 29.91 in 10.0 mi NW 12.7 mph - N/A   Clear
1:52 PM 55.0 °F - 24.1 °F 30% 29.89 in 10.0 mi NW 12.7 mph 20.7 mph N/A   Clear
2:52 PM 55.9 °F - 23.0 °F 28% 29.89 in 10.0 mi NW 15.0 mph 20.7 mph N/A   Clear
3:52 PM 57.0 °F - 24.1 °F 28% 29.88 in 10.0 mi WNW 15.0 mph - N/A   Clear
4:52 PM 54.0 °F - 23.0 °F 30% 29.90 in 10.0 mi WNW 9.2 mph - N/A   Clear
5:52 PM 52.0 °F - 21.9 °F 31% 29.90 in 10.0 mi WNW 8.1 mph - N/A   Clear
6:52 PM 50.0 °F - 19.0 °F 29% 29.92 in 10.0 mi WNW 3.5 mph - N/A   Clear
7:52 PM 46.9 °F - 19.9 °F 34% 29.94 in 10.0 mi WNW 4.6 mph - N/A   Clear
8:52 PM 42.1 °F 40.2 °F 23.0 °F 47% 29.95 in 10.0 mi WNW 3.5 mph - N/A   Clear
9:52 PM 41.0 °F - 24.1 °F 51% 29.96 in 10.0 mi Calm Calm - N/A   Clear
10:52 PM 37.9 °F 35.5 °F 24.1 °F 57% 29.97 in 10.0 mi West 3.5 mph - N/A   Clear
11:52 PM 35.1 °F 31.0 °F 26.1 °F 70% 29.97 in 10.0 mi West 4.6 mph - N/A   Clear